Location: Biharia
(46.4333°N, 22.8000°E)
Time: 01:05:11
(UTC+00:00)

Cosmos 1455 Rocket - Pass Details

Date: 16 October 2021
Orbit: 604 x 630 km, 82.5° (Epoch: 02 December)

Event Time Altitude Azimuth Distance (km) Brightness Sun altitude
Rises 16:30:20 0° 160° (SSE) 2,878 6.3 -9.4°
Reaches altitude 10° 16:32:44 10° 150° (SSE) 1,982 5.4 -9.8°
Maximum altitude 16:36:33 30° 89° (E) 1,132 3.8 -10.4°
Drops below altitude 10° 16:40:25 10° 29° (NNE) 2,010 5.4 -11.1°
Sets 16:42:51 0° 19° (NNE) 2,926 6.3 -11.5°
